sat.trackr.live / text

‹ back to catalog

STARLINK-1191

NORAD 45222 · 2020-012AW

PAYLOAD ACTIVE UNKNOWN

§ Identity

Operator
Country
US
Launch date
2020-02-17
Launch site
AFETR
Launch vehicle
Mass (kg)
RCS (m²)

Purposes: comms

External: N2YO · Heavens-Above · Gunter

§ Orbital elements

Epoch: 2026-05-24T21:37:42.696768Z

Period
93.66 min
Inclination
53.1558°
Eccentricity
0.0004070
Mean motion
15.37461822 rev/d
Perigee alt
450.8 km
Apogee alt
456.4 km
Semi-major
6,831.8 km
B*
1.1460e-3
RAAN
2.7900°
Arg perigee
139.9119°
Mean anomaly
220.2186°
Rev number
34,721

§ Raw data

STARLINK-11911 45222U 20012AW  26144.90118862  .00042578  00000+0  11460-2 0  99912 45222  53.1558   2.7900 0004070 139.9119 220.2186 15.37461822347213

JSON: /api/v1/satellites/45222 · /tle

For live sub-satellite position, see the globe view (requires WebGL).

§ Visibility from observer

Set your observer location to see the next 7 days of passes ≥ 10°. The values pass through the URL so the page stays shareable.

No JS? Fill the form by hand. The geolocation button needs JavaScript.